Temperature
3 3 3 3 3 3 3 3 4 4 4 4 4 4 4 5 5 5 5 5 5 5 5 5 5 5 5 5 5 5 5 5 5 5 5 5 5 5 5 5 5 5 5
2 2 2 3 3 3 3 3 3 3 3 3 3 3 4 4 4 4 4 4 4 4 4 4 4 4 4 4 4 4 4 4 4 4 4 4 4 4 4 4 4 4 4
1 2 2 2 2 2 2 2 2 2 3 2 3 3 3 3 3 4 4 4 4 4 4 4 4 4 4 4 4 4 4 4 4 4 3 4 4 4 4 4 4 4 4
1 1 1 1 1 2 2 2 2 2 2 2 2 2 2 2 3 3 3 3 3 3 3 3 3 3 3 3 3 3 3 3 3 3 3 3 3 3 3 3 3 3 3
1 1 1 1 1 1 1 1 1 1 1 1 1 1 1 2 2 2 2 2 2 2 3 3 3 3 3 3 3 3 3 3 2 2 2 2 2 2 2 2 2 2 3
-0 0 0 1 1 1 1 0 0 0 0 1 1 1 1 1 1 1 2 2 2 2 2 2 2 2 2 2 2 2 2 2 2 2 2 2 2 2 2 2 2 2 2
-1 -0 -0 0 0 0 0 -0 -0 -0 -0 0 0 0 0 1 1 1 1 1 1 1 1 1 1 2 2 2 2 2 2 2 2 2 2 1 1 1 1 1 1 1 2
-1 -1 -1 -1 -0 -0 -1 -1 -1 -1 -1 -1 -1 -0 -0 -0 0 0 0 0 1 1 1 1 1 1 1 2 2 1 1 1 1 1 1 1 1 1 1 1 1 1 1
-1 -1 -1 -1 -1 -1 -1 -1 -1 -1 -1 -1 -1 -1 -1 -1 -0 -0 -0 -0 0 0 0 0 1 1 1 1 1 1 1 1 1 1 1 1 1 1 1 0 0 0 0
-2 -2 -2 -2 -1 -1 -1 -1 -1 -2 -2 -1 -1 -1 -1 -1 -1 -1 -1 -1 -1 -1 -0 -0 0 0 0 0 0 0 -0 0 -0 -0 -0 0 0 0 0 0 0 -0 -0
-2 -2 -2 -2 -2 -2 -2 -2 -2 -2 -2 -2 -2 -2 -2 -2 -2 -1 -1 -1 -1 -1 -1 -1 -0 -0 -0 -0 -0 -0 -0 -1 -1 -1 -1 -1 -0 -0 -1 -1 -1 -1 -1
-3 -3 -3 -2 -2 -2 -2 -2 -2 -2 -2 -2 -2 -2 -2 -2 -2 -2 -2 -2 -2 -2 -2 -1 -1 -1 -1 -1 -1 -1 -1 -1 -1 -1 -1 -1 -1 -1 -1 -1 -1 -1 -1
-3 -3 -3 -3 -3 -3 -3 -3 -3 -3 -3 -3 -3 -3 -3 -3 -3 -3 -2 -2 -2 -2 -2 -2 -2 -2 -2 -2 -1 -1 -1 -2 -2 -2 -2 -2 -2 -2 -2 -2 -2 -2 -2
-4 -4 -3 -3 -3 -3 -3 -3 -3 -3 -3 -4 -4 -4 -4 -3 -3 -3 -3 -3 -3 -3 -3 -2 -2 -2 -2 -2 -2 -2 -2 -2 -2 -2 -2 -2 -2 -2 -2 -2 -2 -2 -2
-4 -4 -4 -4 -4 -4 -4 -4 -4 -4 -4 -4 -4 -4 -4 -4 -4 -4 -4 -3 -3 -3 -3 -3 -3 -3 -3 -3 -3 -3 -3 -3 -3 -2 -2 -3 -3 -3 -3 -3 -3 -3 -3
-4 -4 -4 -4 -4 -4 -4 -4 -4 -4 -4 -4 -4 -4 -4 -4 -4 -4 -4 -3 -3 -3 -3 -4 -4 -4 -4 -4 -4 -4 -3 -3 -3 -3 -3 -3 -3 -3 -3 -3 -3 -3 -3
-5 -5 -5 -5 -5 -5 -5 -5 -5 -4 -4 -4 -4 -4 -4 -4 -4 -4 -4 -4 -4 -4 -4 -4 -4 -4 -4 -4 -4 -4 -4 -4 -4 -4 -4 -3 -3 -4 -4 -4 -4 -4 -4
-5 -5 -5 -5 -5 -5 -5 -5 -5 -5 -5 -5 -5 -5 -4 -4 -4 -4 -4 -4 -4 -4 -4 -4 -4 -4 -4 -4 -4 -4 -4 -4 -4 -4 -4 -4 -4 -4 -4 -4 -4 -4 -4
-5 -5 -5 -5 -5 -6 -6 -6 -6 -6 -6 -5 -5 -5 -5 -4 -4 -4 -4 -4 -4 -4 -4 -4 -4 -4 -4 -4 -4 -4 -4 -4 -4 -4 -4 -4 -4 -4 -4 -4 -4 -4 -4
-6 -6 -6 -6 -6 -6 -6 -6 -6 -6 -6 -6 -6 -5 -5 -5 -5 -5 -5 -5 -5 -5 -5 -5 -5 -4 -4 -4 -4 -4 -4 -4 -4 -4 -4 -5 -4 -4 -4 -4 -4 -4 -5
-6 -6 -6 -6 -6 -6 -6 -6 -6 -6 -6 -6 -6 -6 -6 -5 -5 -5 -5 -5 -5 -5 -5 -5 -5 -4 -4 -4 -4 -4 -4 -4 -4 -4 -4 -4 -5 -5 -5 -5 -5 -5 -5
-6 -6 -6 -6 -6 -7 -7 -7 -7 -6 -6 -6 -6 -6 -5 -6 -5 -5 -5 -5 -5 -5 -5 -5 -5 -5 -5 -4 -4 -4 -4 -4 -4 -4 -4 -5 -5 -5 -4 -5 -5 -5 -5
-7 -7 -7 -7 -7 -7 -7 -7 -7 -6 -6 -6 -6 -6 -6 -6 -6 -6 -5 -5 -5 -5 -5 -5 -5 -5 -5 -5 -5 -5 -4 -4 -4 -4 -4 -4 -5 -5 -5 -5 -5 -5 -5
-7 -7 -7 -7 -7 -7 -7 -7 -7 -7 -7 -7 -6 -6 -6 -6 -6 -6 -6 -6 -5 -5 -5 -5 -5 -5 -5 -5 -5 -5 -5 -5 -5 -5 -5 -4 -5 -5 -5 -5 -5 -5 -5
-7 -7 -7 -7 -7 -7 -7 -7 -7 -7 -7 -7 -7 -7 -7 -6 -6 -6 -6 -6 -6 -6 -5 -5 -5 -5 -5 -5 -5 -5 -5 -5 -5 -5 -5 -5 -5 -5 -5 -5 -5 -5 -5
-8 -8 -8 -8 -8 -8 -8 -8 -7 -7 -7 -7 -7 -7 -7 -7 -7 -6 -6 -6 -6 -6 -6 -5 -5 -5 -5 -5 -5 -5 -5 -5 -5 -5 -5 -5 -5 -5 -5 -5 -5 -5 -5
Wind_Speed
4 3 3 3 3 3 3 4 5 5 5 5 6 6 6 6 6 6 6 6 7 7 7 8 8 7 6 6 6 6 6 6 8 6 5 5 6 7 6 7 7 8 8
4 4 4 4 4 4 4 4 5 5 5 5 6 6 6 6 6 7 7 7 7 8 8 8 8 6 7 6 6 7 7 7 7 8 6 5 6 6 6 6 6 6 7
4 4 4 4 4 5 5 4 5 5 5 6 6 6 6 6 7 7 7 7 8 8 8 9 8 8 9 7 8 7 7 7 7 7 7 5 4 4 5 5 6 6 6
5 4 5 5 5 5 5 5 5 5 5 6 6 6 6 6 7 7 7 7 7 7 7 8 9 9 9 9 8 8 7 7 7 7 6 5 4 4 4 4 5 5 5
5 5 5 5 5 5 5 5 5 5 6 5 6 6 6 6 6 7 7 7 7 7 7 8 8 9 9 8 7 7 7 7 7 7 6 5 5 4 5 4 5 5 5
5 6 5 5 5 5 5 5 5 5 5 5 6 6 6 5 6 8 7 7 7 7 7 8 8 8 9 10 10 10 10 9 8 7 7 8 8 7 5 5 5 4 5
5 5 5 5 5 5 5 5 5 5 5 5 6 6 7 7 8 8 8 7 7 7 8 7 6 6 8 7 8 8 9 11 11 9 9 9 8 8 7 7 6 6 6
5 5 5 5 5 5 5 5 5 5 5 5 6 6 6 7 7 8 8 7 7 7 7 7 7 7 7 7 6 6 6 7 8 8 8 8 7 7 7 6 6 5 5
5 5 5 5 5 5 5 5 5 4 5 5 5 6 6 7 7 7 6 5 5 6 6 6 6 7 7 7 6 6 6 5 5 7 8 8 7 8 6 4 4 4 5
5 5 5 5 5 5 5 5 5 5 5 5 5 5 6 6 6 7 6 4 5 5 4 5 6 7 6 6 6 6 6 6 4 4 5 6 6 6 7 7 6 5 4
5 5 4 4 4 4 5 4 4 4 4 4 5 5 5 5 6 6 6 4 4 4 4 4 4 5 5 6 6 5 6 5 4 4 4 3 3 3 4 4 4 5 5
4 4 4 4 4 4 4 4 4 4 4 4 4 4 4 4 4 5 6 6 5 4 4 4 3 4 4 5 4 3 3 3 3 3 3 3 3 3 2 2 3 3 4
4 4 4 4 4 4 4 4 4 3 3 3 3 4 4 3 4 5 6 5 5 4 3 3 3 3 3 3 3 3 3 3 3 3 3 3 2 2 1 1 1 1 2
4 4 3 4 4 3 3 3 3 4 4 4 4 4 4 4 3 3 3 3 3 3 3 2 2 2 2 2 2 2 2 2 3 3 2 2 1 1 1 1 1 1 1
4 4 4 4 4 3 3 3 4 4 4 4 4 4 4 4 5 5 4 3 3 3 2 2 2 2 2 2 2 1 1 1 2 2 1 1 1 1 1 1 1 2 2
4 4 3 3 3 3 3 3 4 5 6 6 6 6 5 6 7 6 6 5 5 3 2 2 2 2 2 2 2 2 2 2 2 1 2 2 2 2 1 1 1 2 2
3 4 3 3 3 3 3 3 4 4 4 4 5 6 6 6 6 6 5 5 4 3 2 2 3 3 3 3 3 2 2 2 2 2 2 2 2 2 2 2 2 2 2
4 4 4 3 3 3 3 3 3 3 4 3 3 4 4 4 4 4 4 3 2 2 2 3 3 3 3 3 3 2 2 2 2 2 2 2 2 2 2 2 2 2 2
3 3 3 3 3 3 3 3 3 3 3 3 3 3 3 4 4 3 2 2 2 2 2 2 3 3 3 3 2 2 2 2 2 2 2 2 2 2 2 2 2 2 2
3 4 4 3 3 3 3 3 3 3 3 3 3 3 3 3 2 2 2 1 2 2 3 3 3 3 3 3 2 2 2 2 2 2 2 2 2 2 2 2 2 2 2
3 3 4 3 2 3 2 2 3 3 3 3 3 4 4 3 3 3 2 2 2 2 3 3 3 3 3 3 3 3 3 3 2 2 2 2 2 2 2 2 2 2 2
3 3 3 3 3 3 2 2 3 3 3 3 3 4 5 3 2 2 2 2 2 2 2 2 2 2 3 3 3 3 3 3 3 3 2 2 2 2 2 2 2 1 1
3 3 3 3 3 3 3 2 2 3 3 3 3 3 3 3 2 2 2 2 2 2 1 2 2 2 2 3 3 3 4 4 3 3 3 2 2 2 2 2 1 1 1
3 3 3 3 3 2 2 3 3 3 3 3 3 3 3 3 2 2 2 2 2 2 2 2 2 2 3 3 3 3 3 3 3 3 4 3 3 2 2 2 1 2 1
3 3 3 3 3 3 2 3 3 3 3 3 3 3 3 3 3 3 2 2 2 2 2 2 2 2 3 3 3 3 3 3 4 3 4 3 3 3 2 2 2 2 1
3 3 3 3 2 2 2 3 3 3 3 3 3 3 3 3 3 3 3 2 2 2 2 2 2 2 2 2 2 2 3 4 4 4 3 3 3 3 3 2 2 2 2
Wind_Direction
292 280 274 270 268 267 260 260 257 256 256 255 250 244 242 242 240 237 236 233 233 235 233 231 231 231 233 232 233 233 235 241 254 265 263 255 248 248 247 245 245 245 244
292 287 278 268 261 260 261 265 265 260 258 258 256 247 246 242 240 237 236 234 233 236 236 234 232 228 232 232 232 234 236 237 244 257 260 254 255 252 253 250 250 250 252
288 282 275 269 263 261 262 264 265 264 261 257 255 249 246 245 243 242 239 238 239 240 240 239 235 230 233 234 234 236 239 240 241 249 258 261 259 250 255 255 255 256 258
284 276 272 271 266 264 263 260 261 262 260 258 258 254 248 247 247 247 244 241 242 245 248 247 241 234 235 236 236 237 239 241 239 240 249 254 259 253 248 251 260 259 260
280 273 270 273 270 266 262 260 259 259 258 256 258 257 253 248 249 252 246 242 243 247 251 252 248 242 241 242 241 237 234 237 236 237 240 247 248 245 246 251 257 269 274
274 272 274 272 270 269 261 259 258 258 255 253 254 255 255 252 259 259 257 248 245 246 250 254 253 246 243 243 243 241 238 236 236 239 240 237 241 245 248 244 252 262 273
276 274 276 273 268 270 265 258 259 259 257 255 257 258 258 261 264 262 258 254 252 250 251 254 256 251 249 247 244 243 244 243 240 241 244 243 243 236 237 241 243 254 266
279 276 274 271 266 270 269 261 260 260 259 260 262 265 264 265 265 263 261 257 257 253 252 251 252 253 250 246 245 248 250 248 247 244 246 248 247 239 234 240 245 261 282
283 280 277 268 264 265 267 268 263 259 259 260 261 265 266 267 267 267 263 260 256 255 256 251 248 251 249 247 240 243 251 258 260 252 251 248 245 233 225 223 229 241 268
288 285 278 269 265 266 269 271 265 257 258 263 266 268 268 270 271 266 262 255 256 259 259 251 246 249 249 245 241 239 241 249 250 251 247 245 242 225 219 226 228 235 258
291 286 279 274 273 272 273 270 264 260 262 265 270 276 275 275 274 269 267 257 252 257 255 252 249 249 248 250 254 246 242 248 246 247 250 244 236 230 229 233 236 237 241
290 285 283 284 281 274 271 269 265 262 265 268 271 279 282 282 280 276 269 268 267 254 251 250 252 253 259 261 260 249 243 251 246 240 239 238 234 234 235 233 242 257 263
289 288 288 289 287 281 276 272 271 265 263 267 270 277 287 289 287 287 278 274 273 267 263 268 267 268 272 268 260 251 255 246 236 234 238 244 246 237 219 229 258 284 302
290 291 290 288 289 285 278 270 270 266 265 264 264 271 281 285 286 286 284 276 279 272 269 267 259 269 273 270 259 261 263 253 241 235 238 243 243 220 221 226 230 227 278
293 291 287 281 281 283 280 277 273 268 264 264 266 267 269 274 281 287 282 276 275 264 260 257 255 256 260 253 255 260 262 249 242 230 217 218 223 225 241 236 224 242 263
289 290 284 282 283 282 286 298 291 277 282 275 274 271 272 275 284 283 283 282 280 266 253 241 245 246 248 248 240 240 242 237 235 223 217 215 213 216 229 239 242 244 255
292 293 291 289 288 290 291 296 308 312 297 288 284 286 279 276 275 278 278 275 266 263 247 238 241 242 242 246 239 234 242 240 232 223 222 223 219 220 222 237 246 249 261
299 297 294 291 289 288 287 290 294 298 304 306 302 295 294 288 277 278 272 266 257 252 241 239 242 244 242 239 237 235 232 229 226 225 222 227 226 223 228 238 245 247 258
311 303 300 297 294 289 286 287 288 288 290 296 303 308 312 305 298 284 264 241 239 247 248 247 246 246 244 239 235 234 228 225 225 227 229 229 229 226 233 241 247 250 257
317 313 308 302 299 297 288 284 286 287 289 292 295 301 313 311 298 295 286 250 241 248 249 246 246 245 240 237 232 228 228 225 219 223 227 228 232 230 232 237 239 243 253
318 320 317 309 303 299 291 290 293 294 294 295 296 301 303 296 290 292 291 277 260 253 251 246 241 239 237 233 228 225 224 226 225 223 221 221 225 230 237 239 240 243 247
314 315 315 314 311 305 298 294 294 294 299 301 305 311 315 305 295 295 291 289 284 272 257 244 240 239 236 232 227 224 223 223 223 220 218 218 218 224 229 237 245 240 219
314 315 316 316 315 312 310 307 302 302 305 306 308 312 315 312 308 306 305 307 309 302 284 251 240 243 241 234 230 226 223 224 222 215 210 210 212 216 219 220 216 210 208
318 317 317 318 320 316 311 310 310 310 310 311 313 315 315 316 318 318 315 316 316 308 290 268 250 246 249 246 241 234 230 225 215 205 201 202 209 213 209 199 194 195 189
318 317 317 317 320 319 308 307 309 310 308 307 309 312 314 317 320 320 320 316 314 306 302 292 269 251 243 243 246 240 226 219 217 209 198 195 196 199 191 181 178 170 165
325 322 319 316 313 311 307 305 305 305 303 302 303 302 304 308 311 314 316 315 312 311 308 302 288 273 266 258 241 223 216 213 208 203 192 185 188 184 174 169 167 160 152
Height
1457 1457 1457 1457 1458 1457 1457 1458 1458 1458 1459 1459 1460 1460 1460 1461 1462 1463 1463 1464 1465 1466 1467 1468 1468 1470 1471 1472 1473 1473 1474 1475 1473 1473 1475 1475 1476 1476 1476 1476 1476 1475 1474
1454 1453 1453 1453 1453 1453 1453 1453 1454 1454 1454 1454 1455 1455 1455 1456 1457 1458 1458 1459 1460 1461 1462 1462 1463 1464 1464 1465 1466 1467 1468 1468 1468 1467 1468 1469 1470 1470 1470 1470 1470 1469 1469
1451 1450 1450 1449 1449 1449 1449 1449 1449 1449 1450 1450 1450 1450 1450 1451 1452 1453 1453 1454 1454 1455 1456 1456 1457 1458 1458 1459 1460 1460 1461 1462 1462 1462 1462 1463 1463 1464 1464 1464 1464 1464 1463
1447 1446 1446 1446 1445 1445 1445 1445 1445 1445 1445 1445 1446 1446 1446 1446 1447 1448 1448 1448 1449 1450 1450 1451 1451 1451 1452 1453 1453 1454 1455 1455 1456 1456 1456 1456 1457 1458 1459 1458 1458 1458 1457
1444 1443 1442 1442 1441 1441 1441 1441 1441 1441 1441 1441 1441 1441 1441 1441 1441 1442 1443 1443 1443 1444 1444 1445 1445 1445 1445 1446 1447 1448 1449 1449 1450 1450 1449 1451 1451 1452 1453 1453 1452 1452 1451
1440 1439 1438 1438 1437 1437 1437 1436 1436 1436 1436 1436 1436 1436 1436 1436 1436 1437 1437 1438 1438 1439 1439 1439 1440 1440 1440 1440 1441 1442 1443 1443 1444 1444 1444 1444 1445 1447 1447 1447 1447 1446 1445
1436 1435 1434 1434 1433 1433 1432 1432 1432 1432 1432 1432 1431 1431 1431 1431 1431 1432 1432 1433 1433 1433 1433 1434 1434 1434 1434 1435 1435 1436 1437 1437 1438 1439 1438 1438 1439 1440 1441 1442 1442 1441 1440
1432 1431 1430 1430 1429 1429 1428 1428 1428 1428 1427 1427 1427 1427 1426 1426 1427 1427 1427 1427 1427 1428 1428 1428 1428 1428 1429 1429 1429 1430 1430 1431 1432 1432 1433 1433 1434 1435 1436 1437 1436 1436 1435
1428 1427 1427 1426 1426 1425 1425 1424 1424 1424 1423 1423 1423 1422 1422 1421 1422 1422 1422 1422 1422 1422 1423 1423 1423 1424 1424 1424 1425 1424 1425 1425 1426 1427 1427 1427 1428 1429 1430 1431 1431 1430 1429
1425 1424 1423 1423 1422 1422 1421 1420 1420 1420 1419 1419 1418 1418 1417 1417 1417 1417 1418 1417 1417 1417 1417 1418 1418 1419 1419 1419 1420 1420 1420 1420 1421 1421 1421 1421 1422 1423 1424 1425 1426 1426 1425
1422 1421 1420 1419 1419 1418 1418 1417 1416 1416 1415 1414 1414 1413 1413 1412 1412 1412 1413 1413 1413 1413 1413 1413 1414 1414 1415 1415 1415 1415 1415 1416 1416 1416 1416 1416 1417 1418 1419 1420 1421 1421 1421
1419 1418 1417 1416 1416 1415 1414 1413 1413 1412 1411 1410 1410 1409 1409 1408 1408 1408 1409 1409 1409 1409 1409 1409 1410 1410 1410 1411 1411 1411 1411 1412 1412 1411 1412 1412 1412 1413 1414 1415 1415 1416 1416
1416 1415 1414 1413 1412 1412 1411 1410 1409 1409 1408 1407 1406 1405 1405 1405 1405 1405 1405 1405 1406 1406 1405 1406 1406 1406 1406 1406 1407 1407 1407 1407 1407 1407 1408 1408 1409 1409 1410 1410 1410 1411 1411
1413 1412 1411 1411 1410 1409 1408 1407 1406 1405 1404 1403 1403 1402 1402 1402 1402 1401 1401 1402 1402 1402 1402 1402 1403 1403 1403 1403 1403 1403 1403 1403 1404 1404 1404 1404 1405 1405 1405 1406 1406 1406 1406
1411 1410 1409 1408 1407 1406 1405 1404 1403 1402 1401 1401 1400 1400 1399 1398 1399 1399 1399 1399 1399 1399 1399 1399 1399 1399 1399 1399 1399 1399 1399 1400 1400 1400 1401 1401 1401 1402 1402 1402 1402 1402 1402
1409 1408 1407 1406 1405 1403 1402 1401 1399 1399 1398 1398 1397 1397 1396 1396 1396 1396 1396 1396 1396 1396 1396 1395 1395 1396 1396 1396 1396 1396 1396 1397 1397 1397 1398 1398 1398 1399 1399 1399 1399 1399 1398
1407 1406 1405 1403 1402 1401 1399 1398 1396 1396 1395 1395 1394 1394 1393 1393 1393 1393 1393 1393 1393 1393 1393 1392 1393 1393 1393 1394 1394 1394 1394 1394 1394 1395 1395 1395 1396 1396 1396 1396 1396 1396 1395
1405 1404 1403 1401 1400 1399 1397 1396 1394 1393 1392 1391 1392 1391 1390 1390 1390 1390 1390 1390 1390 1390 1390 1390 1390 1390 1391 1391 1391 1391 1391 1391 1392 1392 1392 1393 1393 1393 1394 1393 1393 1393 1393
1403 1401 1400 1399 1398 1396 1395 1394 1393 1392 1390 1389 1389 1388 1388 1388 1388 1388 1387 1387 1387 1387 1387 1387 1387 1388 1388 1388 1389 1389 1389 1389 1389 1390 1390 1390 1391 1391 1391 1391 1391 1391 1390
1401 1399 1398 1397 1396 1394 1393 1392 1391 1390 1389 1388 1387 1386 1386 1386 1385 1385 1385 1385 1385 1385 1385 1385 1385 1385 1386 1386 1386 1387 1387 1387 1387 1388 1388 1388 1389 1389 1389 1389 1389 1388 1388
1399 1398 1396 1395 1394 1393 1391 1390 1389 1389 1388 1387 1386 1385 1385 1384 1383 1383 1382 1382 1382 1382 1382 1382 1383 1383 1383 1383 1384 1384 1385 1385 1385 1386 1386 1386 1386 1387 1387 1387 1386 1386 1386
1397 1396 1395 1393 1392 1391 1390 1389 1388 1387 1386 1385 1384 1384 1383 1382 1381 1381 1380 1380 1380 1380 1380 1380 1380 1380 1381 1381 1381 1382 1382 1382 1383 1383 1384 1384 1384 1384 1384 1384 1384 1385 1385
1396 1395 1393 1392 1391 1390 1389 1388 1387 1386 1385 1384 1383 1382 1381 1380 1379 1379 1378 1378 1378 1378 1378 1378 1378 1378 1378 1378 1379 1379 1380 1380 1380 1381 1381 1382 1382 1383 1383 1383 1383 1384 1384
1396 1394 1393 1391 1390 1388 1387 1387 1386 1384 1383 1382 1381 1380 1380 1379 1378 1377 1377 1377 1376 1376 1376 1376 1376 1376 1376 1376 1377 1377 1377 1378 1379 1379 1380 1380 1380 1381 1382 1382 1382 1383 1383
1395 1393 1392 1390 1389 1387 1386 1385 1384 1383 1382 1381 1380 1379 1378 1377 1376 1376 1375 1375 1375 1374 1374 1374 1374 1374 1374 1374 1374 1375 1375 1376 1377 1377 1378 1379 1379 1380 1380 1381 1382 1382 1382
1393 1392 1390 1389 1388 1386 1385 1384 1383 1382 1381 1379 1378 1377 1377 1376 1375 1375 1374 1374 1373 1373 1373 1372 1372 1372 1372 1372 1372 1373 1374 1374 1375 1376 1376 1377 1378 1378 1379 1380 1381 1382 1382